Orbital Elements at Epoch 2459000.5 (2020-May-31.0) TDB
Reference: JPL 7 (heliocentric ecliptic J2000)
Element | Value | Uncertainty (1-sigma) | Units |
e | .1305481092420366 | 7.0922e-08 | |
a | 2.784149562539014 | 3.5916e-08 | au |
q | 2.420684101302502 | 2.1725e-07 | au |
i | 5.433896172739427 | 7.7407e-06 | deg |
node | 150.5447237202438 | 5.5054e-05 | deg |
peri | 231.8828627022291 | 6.2244e-05 | deg |
M | 297.7796754315401 | 2.8279e-05 | deg |
tp | 2459293.769595850260 (2021-Mar-20.26959585) | 0.00013519 | TDB |
period | 1696.825840082675 4.65 | 3.2834e-05 8.989e-08 | d yr |
n | .212160842613323 | 4.1054e-09 | deg/d |
Q | 3.147615023775526 | 4.0605e-08 | au |
|
| | Orbit Determination Parameters
Additional Information
|